Regional Weather Roundup
Issued by NWS Goodland, KS

Home | Current Version | Previous Version | Text Only | Print | Product List | Glossary Off
Versions: 1 2 3 4 5 6 7 8 9 10 11 12 13 14 15 16 17 18 19 20 21 22 23 24 25 26 27 28 29 30 31 32 33 34 35 36 37 38 39 40 41 42 43 44 45 46 47 48 49 50

498
ASUS43 KGLD 201959
RWRGLD

GOODLAND FORECAST AREA HOURLY WEATHER ROUNDUP
NATIONAL WEATHER SERVICE GOODLAND KS
100 PM MST MON FEB 20 2017

...OFFICIAL OBSERVATIONS...

CITY           SKY/WX    TMP DP  RH WIND       PRES   REMARKS
GOODLAND KS    SUNNY     61  19  19 N24G32    29.92F
HILL CITY KS   MOSUNNY   66  36  32 N22G36    29.85S
IMPERIAL NEB   SUNNY     61  25  25 N20       29.90F
MCCOOK NEB     MOSUNNY   64  34  32 NW20G31   29.86F
AKRON CO       SUNNY     59   8  13 N24       29.97S
BURLINGTON CO  NOT AVBL
LIMON CO       SUNNY     57  11  16 NW18G25   30.01F
$$

...UNOFFICIAL OBSERVATIONS...

CITY           SKY/WX    TMP DP  RH WIND       PRES   REMARKS
LENORA KS        N/A     62  32  32 NW14        N/A
NORTON KS      SUNNY     63  28  27 N25G35    29.84R
SHARON SPRINGS   N/A     61  21  21 NW22G35     N/A
TRENTON NEB      N/A     60  32  34 NW16        N/A
KIT CARSON CO    N/A     59  18  20 MISG        N/A
YUMA CO        FAIR      57  12  17 NW17      29.95F
$$




USA.gov is the U.S. government's official web portal to all federal, state and local government web resources and services.